Northeast Philadelphia, PA

8:05 PM EST on December 05, 2019 (GMT -0500)
Northeast Philadelphia

Weather History for KPNE - October, 2019

Change the Weather History Date:

Tuesday, October 22, 2019

  Actual Average Record
Temperature  
Mean Temperature 62 °F -  
Max Temperature 66 °F 60 °F 79 °F (2007)
Min Temperature 59 °F 41 °F 36 °F (1997)
Degree Days  
Heating Degree Days 2    
Growing Degree Days 12 (Base 50)    
Moisture  
Dew Point 57 °F    
Average Humidity 84    
Maximum Humidity 90    
Minimum Humidity 75    
Precipitation  
Precipitation 0.58 in - - ()
Sea Level Pressure  
Sea Level Pressure 29.96 in    
Wind  
Wind Speed 5 mph ()    
Max Wind Speed 13 mph    
Max Gust Speed -    
Visibility 5.3 miles    
Events Rain    
Averages and records for this station are not official NWS values.
T = Trace of Precipitation, MM = Missing Value Source: Averaged Metar Reports

Daily Weather History Graph

Daily Weather History Graph

Search for Another Location

Airport or City:

Astronomy

Oct. 22, 2019 Rise Set
Actual Time 7:17 AM EDT 6:10 PM EDT
Civil Twilight 6:50 AM EDT 6:38 PM EDT
Nautical Twilight 6:18 AM EDT 7:09 PM EDT
Astronomical Twilight 5:47 AM EDT 7:41 PM EDT
Moon 12:24 AM EDT (10/22) 3:18 PM EDT (10/22)
Length of Visible Light 11h 47m
Length of Day
10h 52m
Last Quarter, 37% of the Moon is Illuminated
Oct 22
Last Quarter
Oct 27
New
Nov 4
First Quarter
Nov 12
Full
Nov 19
Last Quarter

Hourly Weather History & Observations

Time (EDT) Temp. Dew Point Humidity Pressure Visibility Wind Dir Wind Speed Gust Speed Precip Events Conditions
12:54 AM 60.1 °F 53.1 °F 78% 30.12 in 10.0 mi Calm Calm - N/A   Overcast
1:03 AM 60.1 °F 53.1 °F 78% 30.12 in 10.0 mi Calm Calm - N/A   Overcast
1:54 AM 60.1 °F 53.1 °F 78% 30.10 in 10.0 mi East 4.6 mph - N/A   Overcast
2:54 AM 60.1 °F 53.1 °F 78% 30.10 in 10.0 mi Calm Calm - N/A   Overcast
3:11 AM 60.1 °F 53.1 °F 78% 30.10 in 10.0 mi Calm Calm - N/A   Overcast
3:34 AM 60.1 °F 53.1 °F 78% 30.09 in 10.0 mi Calm Calm - N/A   Overcast
3:54 AM 60.1 °F 53.1 °F 78% 30.08 in 10.0 mi ENE 3.5 mph - N/A   Overcast
4:54 AM 60.1 °F 52.0 °F 75% 30.07 in 10.0 mi East 4.6 mph - N/A   Overcast
5:54 AM 59.0 °F 52.0 °F 78% 30.07 in 10.0 mi ENE 5.8 mph - N/A   Overcast
6:54 AM 59.0 °F 52.0 °F 78% 30.07 in 10.0 mi ENE 6.9 mph - N/A   Overcast
7:33 AM 59.0 °F 52.0 °F 78% 30.03 in 10.0 mi East 10.4 mph - N/A   Overcast
7:54 AM 59.0 °F 52.0 °F 78% 30.04 in 10.0 mi East 9.2 mph - N/A   Overcast
8:03 AM 59.0 °F 52.0 °F 78% 30.04 in 10.0 mi East 9.2 mph - N/A   Overcast
8:54 AM 59.0 °F 54.0 °F 83% 30.06 in 2.0 mi East 4.6 mph - N/A   Haze
9:15 AM 59.0 °F 54.0 °F 83% 30.07 in 10.0 mi East 5.8 mph - N/A   Overcast
9:54 AM 60.1 °F 55.0 °F 83% 30.05 in 8.0 mi East 10.4 mph - N/A   Overcast
10:43 AM 61.0 °F 57.0 °F 87% 30.04 in 3.0 mi ESE 8.1 mph - N/A   Overcast
10:54 AM 61.0 °F 57.0 °F 87% 30.04 in 1.5 mi ESE 6.9 mph - N/A   Overcast
11:54 AM 63.0 °F 57.9 °F 84% 30.01 in 1.5 mi ESE 11.5 mph - N/A   Haze
12:13 PM 63.0 °F 59.0 °F 87% 30.00 in 1.5 mi ESE 9.2 mph - N/A   Overcast
12:54 PM 64.9 °F 59.0 °F 81% 29.97 in 1.5 mi ESE 11.5 mph - N/A   Overcast
1:54 PM 64.0 °F 60.1 °F 87% 29.92 in 1.5 mi ESE 11.5 mph - N/A   Overcast
2:54 PM 64.9 °F 61.0 °F 87% 29.89 in 1.5 mi SE 8.1 mph - N/A   Overcast
3:54 PM 64.9 °F 61.0 °F 87% 29.88 in 1.5 mi SE 11.5 mph - 0.01 in   Overcast
4:54 PM 64.9 °F 61.0 °F 87% 29.86 in 1.5 mi SE 10.4 mph - 0.01 in   Overcast
5:54 PM 64.9 °F 61.0 °F 87% 29.86 in 1.5 mi SE 6.9 mph - 0.02 in Rain Rain
6:44 PM 64.9 °F 61.0 °F 87% 29.84 in 1.5 mi ESE 12.7 mph - 0.15 in Rain Heavy Rain
6:54 PM 64.9 °F 61.0 °F 87% 29.84 in 1.5 mi ESE 12.7 mph - 0.26 in Rain Rain
7:11 PM 64.9 °F 61.0 °F 87% 29.83 in 1.5 mi ESE 12.7 mph - 0.05 in Rain Light Rain
7:37 PM 64.9 °F 61.0 °F 87% 29.83 in 1.5 mi ESE 11.5 mph - 0.06 in   Overcast
7:54 PM 64.9 °F 62.1 °F 90% 29.83 in 1.5 mi ESE 11.5 mph - 0.08 in Rain Rain
8:42 PM 64.9 °F 62.1 °F 90% 29.82 in 1.5 mi Variable 4.6 mph - 0.06 in Rain Light Rain
8:54 PM 64.9 °F 62.1 °F 90% 29.81 in 1.5 mi WSW 5.8 mph - 0.06 in Rain Light Rain
9:54 PM 66.0 °F 63.0 °F 90% 29.82 in 1.5 mi SW 3.5 mph - 0.09 in Rain Light Rain
10:54 PM 64.9 °F 62.1 °F 90% 29.82 in 3.0 mi WNW 8.1 mph - 0.03 in Rain Light Rain
11:18 PM 64.0 °F 61.0 °F 90% 29.81 in 10.0 mi WNW 6.9 mph - 0.00 in   Overcast
11:40 PM 64.0 °F 60.1 °F 87% 29.81 in 5.0 mi WNW 5.8 mph - 0.00 in Rain Light Rain
11:54 PM 64.0 °F 60.1 °F 87% 29.82 in 4.0 mi WNW 9.2 mph - 0.02 in Rain Light Rain